This is the latest recevied weather packets stored in our database for station/object SP4IM-13. If no packets are shown the sender has not sent any weather packets the latest 10 day(s).
| Time | Temp. | Humidity | Pressure | Rain* | Wind** | Luminosity | Snow |
|---|---|---|---|---|---|---|---|
| 1777375803 | 8.89° C | 49% | 1020 hPa | - | - | - | - |
| 1777375203 | 8.89° C | 50% | 1020 hPa | - | - | - | - |
| 1777374603 | 8.89° C | 48% | 1020 hPa | - | - | - | - |
| 1777374002 | 8.89° C | 50% | 1020 hPa | - | - | - | - |
| 1777373402 | 8.89° C | 52% | 1020 hPa | - | - | - | - |
| 1777372802 | 8.89° C | 49% | 1020 hPa | - | - | - | - |
| 1777372202 | 9.44° C | 43% | 1020 hPa | - | - | - | - |
| 1777371602 | 9.44° C | 42% | 1020 hPa | - | - | - | - |
| 1777371002 | 9.44° C | 42% | 1020 hPa | - | - | - | - |
| 1777370403 | 9.44° C | 42% | 1020 hPa | - | - | - | - |
| 1777369802 | 8.89° C | 43% | 1020 hPa | - | - | - | - |
| 1777369202 | 8.89° C | 44% | 1020 hPa | - | - | - | - |
| 1777368602 | 8.89° C | 44% | 1020 hPa | - | - | - | - |
| 1777368002 | 8.89° C | 43% | 1020 hPa | - | - | - | - |
| 1777367403 | 8.89° C | 42% | 1020 hPa | - | - | - | - |
| 1777366802 | 8.89° C | 43% | 1020 hPa | - | - | - | - |
| 1777366202 | 8.33° C | 43% | 1020 hPa | - | - | - | - |
| 1777365602 | 8.89° C | 44% | 1020 hPa | - | - | - | - |
| 1777365003 | 8.89° C | 43% | 1020 hPa | - | - | - | - |
| 1777364402 | 8.89° C | 44% | 1020 hPa | - | - | - | - |
| 1777363802 | 9.44° C | 44% | 1020 hPa | - | - | - | - |
| 1777363202 | 7.78° C | 44% | 1020 hPa | - | - | - | - |
| 1777362606 | 6.67° C | 42% | 1020 hPa | - | - | - | - |
| 1777362007 | 6.11° C | 42% | 1020 hPa | - | - | - | - |
| 1777361406 | 6.11° C | 44% | 1020 hPa | - | - | - | - |
* Rain since midnight (hover to see other rain measurements)
** Current wind speed in m/s (hover to see current wind gust speed)